This demonstration page uses our WeatherBlox Daily Observations layout. Learn more.

Hourly Observations for July 4, 2020

Temp ( °F °C ) Dew Point ( °F °C ) Humidity (%) Winds ( mph kmh ) Pressure ( in mb ) Visibility ( mi km ) Precip ( " mm )
12:15 am 00:15 Clear 70 21.3 66 18.8 86 86 Calm 30.01 1016 10 16.0934 0 0
12:35 am 00:35 Clear 70 21.1 66 18.9 87 87 Calm 30.04 1017 10 16.0934 0 0
12:55 am 00:55 Clear 71 21.4 65 18.6 84 84 S 5 7 30.04 1017 10 16.0934 0 0
1:15 am 01:15 Clear 72 22.1 65 18.6 81 81 S 5 7 30.03 1017 10 16.0934 0 0
1:35 am 01:35 Clear 70 21.1 65 18.5 85 85 SSE 3 6 30.02 1017 10 16.0934 0 0
1:55 am 01:55 Clear 70 21 65 18.3 85 85 Calm 30.01 1016 10 16.0934 0 0
2:15 am 02:15 Clear 69 20.6 65 18.5 88 88 Calm 30.01 1016 10 16.0934 0 0
2:35 am 02:35 Clear 69 20.5 65 18.3 87 87 Calm 30.01 1016 10 16.0934 0 0
2:55 am 02:55 Clear 69 20.3 65 18.2 88 88 Calm 30.01 1016 10 16.0934 0 0
3:15 am 03:15 Clear 69 20.7 65 18.2 86 86 Calm 30 1016 10 16.0934 0 0
3:35 am 03:35 Clear 67 19.3 64 17.7 91 91 Calm 30 1016 10 16.0934 0 0
3:55 am 03:55 Clear 67 19.6 65 18.1 91 91 Calm 30.01 1016 10 16.0934 0 0
4:15 am 04:15 Clear 67 19.7 65 18.1 91 91 Calm 29.99 1016 10 16.0934 0 0
4:35 am 04:35 Clear 67 19.5 64 17.8 90 90 SSE 3 6 30 1016 10 16.0934 0 0
4:55 am 04:55 Clear 67 19.4 64 17.7 90 90 Calm 29.98 1015 10 16.0934 0 0
5:15 am 05:15 Clear 65 18.5 63 17.1 92 92 ESE 5 7 29.98 1015 10 16.0934 0 0
5:35 am 05:35 Clear 66 19 64 17.8 93 93 Calm 30 1016 10 16.0934 0 0
5:55 am 05:55 Clear 65 18.6 63 17.3 92 92 Calm 29.99 1016 10 16.0934 0 0
6:15 am 06:15 Sunny 65 18.5 63 17.3 93 93 Calm 29.99 1016 10 16.0934 0 0
6:35 am 06:35 Sunny 65 18.6 63 17.4 93 93 Calm 30 1016 10 16.0934 0 0
6:55 am 06:55 Sunny 66 19 64 17.5 91 91 Calm 30 1016 10 16.0934 0 0
7:15 am 07:15 Sunny 66 19 64 17.9 93 93 Calm 30.01 1016 10 16.0934 0 0
7:35 am 07:35 Sunny 68 20.1 65 18.4 90 90 Calm 30.01 1016 10 16.0934 0 0
7:55 am 07:55 Sunny 71 21.9 67 19.5 86 86 Calm 30 1016 10 16.0934 0 0
8:15 am 08:15 Sunny 75 24.1 65 18.6 71 71 S 3 6 29.97 1015 10 16.0934 0 0
8:35 am 08:35 Sunny 76 24.5 66 18.8 71 71 S 6 9 29.97 1015 10 16.0934 0 0
8:55 am 08:55 Sunny 77 24.8 67 19.2 71 71 S 5 7 29.98 1015 10 16.0934 0 0
9:15 am 09:15 Sunny 78 25.5 68 19.8 71 71 SSE 7 11 29.97 1015 10 16.0934 0 0
9:35 am 09:35 Sunny 78 25.8 68 20.2 71 71 SSE 7 11 29.97 1015 10 16.0934 0 0
9:55 am 09:55 Sunny 80 26.5 68 20.2 68 68 SE 7 11 29.97 1015 10 16.0934 0 0
10:15 am 10:15 Sunny 81 27 68 20 66 66 SSE 7 11 29.97 1015 10 16.0934 0 0
10:35 am 10:35 Sunny 82 27.5 67 19.7 63 63 SE 8 13 29.96 1014 10 16.0934 0 0
10:55 am 10:55 Sunny 82 27.7 67 19.6 61 61 ESE 7 11 29.97 1015 10 16.0934 0 0
11:15 am 11:15 Sunny 82 28 67 19.5 60 60 ESE 9 15 29.96 1015 10 16.0934 0 0
11:35 am 11:35 Sunny 83 28.2 67 19.4 59 59 ESE 10 17 29.96 1015 10 16.0934 0 0
11:55 am 11:55 Sunny 83 28.3 67 19.4 59 59 SE 10 17 29.96 1015 10 16.0934 0 0
12:15 pm 12:15 Sunny 83 28.6 67 19.6 58 58 SE 12 19 29.96 1014 10 16.0934 0 0
12:35 pm 12:35 Partly Cloudy 83 28.6 67 19.5 58 58 ESE 8 13 29.96 1014 10 16.0934 0 0
12:55 pm 12:55 Partly Cloudy 85 29.3 66 19.1 54 54 ESE 9 15 29.93 1014 10 16.0934 0 0
1:15 pm 13:15 Partly Cloudy 85 29.4 66 19.1 54 54 ESE 8 13 29.93 1014 10 16.0934 0 0
1:35 pm 13:35 Partly Cloudy 85 29.7 67 19.2 53 53 ESE 9 15 29.92 1013 10 16.0934 0 0
1:55 pm 13:55 Partly Cloudy 86 29.9 67 19.2 53 53 ESE 10 17 29.93 1013 10 16.0934 0 0
2:15 pm 14:15 Partly Cloudy 85 29.6 66 19.1 53 53 SSE 7 11 29.92 1013 10 16.0934 0 0
2:35 pm 14:35 Partly Cloudy 85 29.5 66 18.9 53 53 ESE 9 15 29.92 1013 10 16.0934 0 0
2:55 pm 14:55 Partly Cloudy 86 30.1 66 18.8 51 51 E 10 17 29.91 1013 10 16.0934 0 0
3:15 pm 15:15 Partly Cloudy 87 30.5 64 17.9 47 47 Calm 29.9 1013 10 16.0934 0 0
3:35 pm 15:35 Mostly Cloudy 86 30 64 17.8 48 48 Calm 29.91 1013 10 16.0934 0 0
3:55 pm 15:55 Mostly Cloudy 86 30.1 65 18.1 49 49 ESE 8 13 29.89 1012 10 16.0934 0 0
4:15 pm 16:15 Partly Cloudy 86 30.2 65 18.2 49 49 SE 6 9 29.9 1012 10 16.0934 0 0
4:35 pm 16:35 Sunny 87 30.6 64 17.9 47 47 ESE 8 13 29.88 1012 10 16.0934 0 0
4:55 pm 16:55 Sunny 87 30.6 65 18.4 48 48 ESE 9 15 29.87 1012 10 16.0934 0 0
5:15 pm 17:15 Partly Cloudy 88 30.9 65 18.2 47 47 ESE 9 15 29.87 1012 10 16.0934 0 0
5:35 pm 17:35 Partly Cloudy 87 30.6 64 18 47 47 ESE 9 15 29.85 1011 10 16.0934 0 0
5:55 pm 17:55 Partly Cloudy 88 31 65 18.5 47 47 E 9 15 29.84 1010 10 16.0934 0 0
6:15 pm 18:15 Sunny 87 30.5 65 18.1 47 47 ESE 8 13 29.85 1011 10 16.0934 0 0
6:35 pm 18:35 Sunny 87 30.3 65 18.1 48 48 ESE 9 15 29.84 1010 10 16.0934 0 0
6:55 pm 18:55 Sunny 86 30.1 65 18.1 49 49 ESE 6 9 29.83 1010 10 16.0934 0 0
7:15 pm 19:15 Sunny 85 29.6 65 18.4 51 51 ESE 9 15 29.82 1010 10 16.0934 0 0
7:35 pm 19:35 Sunny 85 29.2 66 18.9 54 54 ESE 8 13 29.82 1010 10 16.0934 0 0
7:55 pm 19:55 Sunny 83 28.6 67 19.5 58 58 ESE 7 11 29.84 1010 10 16.0934 0 0
8:15 pm 20:15 Sunny 82 27.7 67 19.7 62 62 SE 8 13 29.85 1011 10 16.0934 0 0
8:35 pm 20:35 Sunny 80 26.7 67 19.7 66 66 SE 7 11 29.85 1011 10 16.0934 0 0
8:55 pm 20:55 Sunny 78 25.5 68 20 72 72 SE 7 11 29.87 1012 10 16.0934 0 0
9:15 pm 21:15 Clear 76 24.3 68 19.8 76 76 ESE 6 9 29.88 1012 10 16.0934 0 0
9:35 pm 21:35 Clear 74 23.6 68 19.8 79 79 ESE 7 11 29.9 1012 10 16.0934 0 0
9:55 pm 21:55 Clear 74 23.1 67 19.7 81 81 ESE 6 9 29.91 1013 10 16.0934 0 0
10:15 pm 22:15 Clear 72 22.2 67 19.5 85 85 ESE 6 9 29.94 1014 10 16.0934 0 0
10:35 pm 22:35 Clear 72 22.2 66 19.1 83 83 SE 6 9 29.95 1014 10 16.0934 0 0
10:55 pm 22:55 Clear 70 21 66 18.7 87 87 ESE 6 9 29.96 1015 10 16.0934 0 0
11:15 pm 23:15 Clear 71 21.5 65 18.4 83 83 SE 6 9 29.96 1015 10 16.0934 0 0
11:35 pm 23:35 Clear 70 21.2 65 18.5 85 85 ESE 7 11 29.95 1014 10 16.0934 0 0
11:55 pm 23:55 Clear 70 21 65 18.2 84 84 SE 7 11 29.96 1015 10 16.0934 0 0

Powered by AerisWeather